Regional Weather Roundup
Issued by NWS

Home | Current Version | Previous Version | Text Only | Print | Product List | Glossary Off
Versions: 1 2 3 4 5 6 7 8 9 10 11 12 13 14 15 16 17 18 19 20 21 22 23 24 25 26 27 28 29 30 31 32 33 34 35 36 37 38 39 40 41 42 43 44 45 46 47 48 49 50

454
ASUS43 KTOP 301008
RWRKS

WEATHER ROUNDUP FOR KANSAS
NATIONAL WEATHER SERVICE GOODLAND KS
500 AM CDT THU MAR 30 2017

NOTE:  "FAIR" INDICATES FEW OR NO CLOUDS BELOW 12,000 FEET WITH NO
SIGNIFICANT WEATHER AND/OR OBSTRUCTIONS TO VISIBILITY.

KSZ001>006-013>018-027>032-041>047-301100-
NORTHWEST KANSAS

CITY           SKY/WX    TMP DP  RH WIND       PRES   REMARKS
GOODLAND       MOCLDY    34  33  96 NW10      29.82F WCI  26
HAYS             N/A     40  37  89 N21       29.74F WCI  30
HILL CITY      CLOUDY    40  38  93 N15G23    29.79F WCI  32
RUSSELL        CLOUDY    39  36  89 NW25G38   29.71S WCI  28
$$

KSZ061>065-074>080-084>089-301100-
SOUTHWEST KANSAS

CITY           SKY/WX    TMP DP  RH WIND       PRES   REMARKS
DODGE CITY     CLOUDY    41  37  86 NW16G29   29.77S
ELKHART          N/A     37  29  73 W10         N/A  WCI  30
GARDEN CITY    CLOUDY    39  36  89 NW15      29.81F WCI  31
GREAT BEND     CLOUDY    40  37  89 NW23G30   29.72R WCI  30
LIBERAL        CLEAR     37  32  81 NW8       29.84F
PRATT          CLOUDY    38  35  88 NW21G33   29.71S WCI  28
$$

KSZ066>073-081>083-090>101-301100-
SOUTHEAST KANSAS

CITY           SKY/WX    TMP DP  RH WIND       PRES   REMARKS
CHANUTE        LGT RAIN  47  45  93 SW13      29.56F FOG
COFFEYVILLE    CLOUDY    47  45  93 SW10      29.61S
MEDICINE LODGE   N/A     42  37  82 NW21G30   29.70F
NEWTON         CLOUDY    41  39  93 NW25G31   29.60S FOG
PARSONS        CLOUDY    46  45  96 SW9       29.59F
WICHITA INTL   CLOUDY    44  44 100 NW20      29.63S FOG
WICHITA JABRA  CLOUDY    41  40  96 NW21G30   29.61S FOG
WICHITA MCCONL LGT RAIN  41  39  93 NW17G23   29.62R FOG
WINFIELD       CLOUDY    44  41  89 W18       29.64S
$$

KSZ007>012-019>026-033>040-048>060-102>105-301100-
NORTHEAST KANSAS

CITY           SKY/WX    TMP DP  RH WIND       PRES   REMARKS
CONCORDIA      LGT RAIN  40  39  97 N16G30    29.67R WCI  31
EMPORIA        CLOUDY    44  44 100 W10       29.52S FOG
LAWRENCE       CLOUDY    49  47  93 E9        29.55F
MANHATTAN      LGT RAIN  45  43  93 N14G22    29.56S FOG
MARYSVILLE     LGT RAIN  43  43 100 N15G22    29.61S
OLATHE IND     CLOUDY    48  45  89 S9        29.55F
OLATHE EXE     CLOUDY    47  46  97 SE6       29.55F
SALINA         RAIN      43  40  89 NW26G35   29.64S
TOPEKA BILLARD CLOUDY    50  49  96 SE3       29.54S
TOPEKA FORBES  CLOUDY    49  48  97 SE6       29.53F
$$




USA.gov is the U.S. government's official web portal to all federal, state and local government web resources and services.